Location: Wanzleben
(52.0609°N, 11.4408°E)
Time: 02:53:45
(UTC+00:00)

Envisat - Pass Details

Date: 30 November 2020
Orbit: 764 x 766 km, 98.1° (Epoch: 20 January)

Event Time Altitude Azimuth Distance (km) Brightness Sun altitude
Rises 04:13:50 0° 23° (NNE) 3,248 6.5 -24.4°
Reaches altitude 10° 04:16:33 10° 36° (NE) 2,316 5.8 -24.0°
Maximum altitude 04:20:45 25° 92° (E) 1,503 5.2 -23.4°
Drops below altitude 10° 04:24:55 10° 147° (SSE) 2,300 6.0 -22.7°
Sets 04:27:35 0° 160° (SSE) 3,221 6.6 -22.3°
